EWG9HE EDDF-LBSF

Flight info

Callsign EWG9HE
Flight time 2h 0m
Altitude 37000
Route CINDY8S/18 CINDY Z74 LAMPU DCT NOMBO Y161 MAH DCT LATLO DCT OBEDI DCT CEPRA DCT PODET DCT MOSAV DCT BABOL DCT NANER DCT NISVA
Aircraft A320/M-SDE3FGHIRWY/LB1

Departure

Time 2026-04-14 15:04
Airport Frankfurt Main Airport (EDDF)

Arrival

Time 2026-04-14 17:04
Airport Sofia Airport (LBSF)
Time Latitude Longitude Altitude Speed Heading
2026-04-14 14:22 50.04390 8.56168 356 ft 0 kts 155°
2026-04-14 14:49 50.04404 8.56159 363 ft 4 kts 165°
2026-04-14 14:49 50.04439 8.56156 363 ft 4 kts 197°
2026-04-14 14:49 50.04462 8.56175 356 ft 4 kts 229°
2026-04-14 14:49 50.04470 8.56194 356 ft 1 kts 249°
2026-04-14 14:50 50.04471 8.56195 356 ft 1 kts 249°
2026-04-14 14:50 50.04470 8.56193 363 ft 1 kts 249°
2026-04-14 14:50 50.04475 8.56213 356 ft 2 kts 249°
2026-04-14 14:51 50.04480 8.56236 364 ft 2 kts 249°
2026-04-14 14:51 50.04486 8.56258 362 ft 2 kts 249°
2026-04-14 14:51 50.04491 8.56281 362 ft 2 kts 249°
2026-04-14 14:51 50.04497 8.56304 360 ft 2 kts 249°
2026-04-14 14:52 50.04502 8.56326 363 ft 2 kts 249°
2026-04-14 14:52 50.04508 8.56349 362 ft 2 kts 249°
2026-04-14 14:52 50.04513 8.56371 361 ft 2 kts 249°
2026-04-14 14:52 50.04515 8.56379 356 ft 0 kts 249°
2026-04-14 14:57 50.04510 8.56359 362 ft 11 kts 249°
2026-04-14 14:57 50.04467 8.56176 361 ft 10 kts 249°
2026-04-14 14:58 50.04441 8.56068 363 ft 11 kts 248°
2026-04-14 14:58 50.04383 8.56032 358 ft 10 kts 159°
2026-04-14 14:58 50.04294 8.56074 355 ft 18 kts 185°
2026-04-14 14:58 50.04235 8.55928 356 ft 17 kts 241°
2026-04-14 14:59 50.04199 8.55767 353 ft 13 kts 249°
2026-04-14 14:59 50.04161 8.55614 356 ft 18 kts 249°
2026-04-14 14:59 50.04111 8.55405 353 ft 23 kts 250°
2026-04-14 14:59 50.04052 8.55154 360 ft 27 kts 250°
2026-04-14 15:00 50.03989 8.54898 354 ft 28 kts 249°
2026-04-14 15:00 50.03929 8.54641 353 ft 27 kts 250°
2026-04-14 15:00 50.03871 8.54402 349 ft 26 kts 246°
2026-04-14 15:00 50.03777 8.54134 352 ft 30 kts 251°
2026-04-14 15:01 50.03701 8.53817 347 ft 29 kts 249°
2026-04-14 15:01 50.03623 8.53499 341 ft 34 kts 249°
2026-04-14 15:01 50.03548 8.53185 336 ft 27 kts 249°
2026-04-14 15:01 50.03483 8.52921 336 ft 21 kts 248°
2026-04-14 15:02 50.03435 8.52740 333 ft 9 kts 251°
2026-04-14 15:02 50.03430 8.52716 333 ft 0 kts 251°
2026-04-14 15:02 50.03425 8.52691 334 ft 10 kts 251°
2026-04-14 15:03 50.03318 8.52593 335 ft 25 kts 178°
2026-04-14 15:03 50.03259 8.52595 333 ft 10 kts 179°
2026-04-14 15:03 50.02998 8.52607 335 ft 75 kts 177°
2026-04-14 15:03 50.02187 8.52612 336 ft 156 kts 179°
2026-04-14 15:04 50.00938 8.52620 696 ft 193 kts 177°
2026-04-14 15:04 49.99506 8.52636 1387 ft 216 kts 179°
2026-04-14 15:04 49.97950 8.52671 2221 ft 230 kts 174°
2026-04-14 15:04 49.96469 8.53582 2889 ft 238 kts 137°
2026-04-14 15:05 49.95442 8.55705 3353 ft 256 kts 118°
2026-04-14 15:05 49.94549 8.58160 3984 ft 265 kts 116°
2026-04-14 15:05 49.93671 8.60680 4158 ft 266 kts 116°
2026-04-14 15:05 49.92797 8.63211 4188 ft 266 kts 116°
2026-04-14 15:06 49.91919 8.65732 4185 ft 265 kts 116°
2026-04-14 15:06 49.91026 8.68260 4675 ft 268 kts 116°
2026-04-14 15:06 49.90123 8.70793 5738 ft 269 kts 116°
2026-04-14 15:06 49.89208 8.73349 6687 ft 272 kts 116°
2026-04-14 15:07 49.88277 8.75932 7553 ft 276 kts 117°
2026-04-14 15:07 49.87330 8.78554 8405 ft 281 kts 118°
2026-04-14 15:07 49.86366 8.81222 9261 ft 285 kts 120°
2026-04-14 15:07 49.85387 8.83920 10123 ft 289 kts 121°
2026-04-14 15:08 49.84368 8.86724 10537 ft 309 kts 121°
2026-04-14 15:08 49.83270 8.89740 10797 ft 333 kts 121°
2026-04-14 15:08 49.82106 8.92941 11114 ft 347 kts 120°
2026-04-14 15:08 49.80920 8.96210 11181 ft 349 kts 121°
2026-04-14 15:09 49.79728 8.99487 11186 ft 349 kts 121°
2026-04-14 15:09 49.78534 9.02769 11187 ft 349 kts 121°
2026-04-14 15:09 49.77344 9.06043 11188 ft 349 kts 121°
2026-04-14 15:09 49.76281 9.09432 11182 ft 351 kts 112°
2026-04-14 15:10 49.75587 9.13048 11184 ft 352 kts 104°
2026-04-14 15:10 49.74911 9.16630 11182 ft 352 kts 113°
2026-04-14 15:10 49.73792 9.20026 11189 ft 350 kts 124°
2026-04-14 15:10 49.72287 9.22944 11781 ft 353 kts 133°
2026-04-14 15:11 49.70650 9.25789 12596 ft 356 kts 132°
2026-04-14 15:11 49.69008 9.28692 13321 ft 361 kts 132°
2026-04-14 15:11 49.67348 9.31647 14011 ft 367 kts 132°
2026-04-14 15:11 49.65665 9.34643 14645 ft 371 kts 132°
2026-04-14 15:12 49.63964 9.37661 15288 ft 375 kts 132°
2026-04-14 15:12 49.62181 9.40613 15931 ft 377 kts 139°
2026-04-14 15:12 49.60092 9.43057 16595 ft 378 kts 149°
2026-04-14 15:12 49.57821 9.45132 17242 ft 381 kts 151°
2026-04-14 15:13 49.55528 9.47218 17888 ft 384 kts 150°
2026-04-14 15:13 49.53219 9.49318 18529 ft 387 kts 150°
2026-04-14 15:13 49.50890 9.51439 19091 ft 390 kts 150°
2026-04-14 15:13 49.48546 9.53573 19667 ft 393 kts 150°
2026-04-14 15:14 49.46188 9.55723 20241 ft 396 kts 150°
2026-04-14 15:14 49.43815 9.57891 20817 ft 398 kts 151°
2026-04-14 15:14 49.41423 9.60068 21375 ft 401 kts 151°
2026-04-14 15:14 49.39010 9.62256 21917 ft 404 kts 151°
2026-04-14 15:15 49.36581 9.64460 22442 ft 407 kts 151°
2026-04-14 15:15 49.34194 9.66829 22960 ft 412 kts 144°
2026-04-14 15:15 49.32050 9.69771 23469 ft 416 kts 137°
2026-04-14 15:15 49.30003 9.72928 23935 ft 419 kts 137°
2026-04-14 15:16 49.27935 9.76096 24336 ft 422 kts 137°
2026-04-14 15:16 49.25849 9.79275 24729 ft 424 kts 137°
2026-04-14 15:16 49.23756 9.82462 25112 ft 426 kts 136°
2026-04-14 15:16 49.21648 9.85671 25495 ft 428 kts 137°
2026-04-14 15:17 49.19526 9.88890 25873 ft 431 kts 137°
2026-04-14 15:17 49.17391 9.92123 26242 ft 433 kts 137°
2026-04-14 15:17 49.15243 9.95370 26607 ft 435 kts 137°
2026-04-14 15:17 49.13086 9.98630 26967 ft 437 kts 137°
2026-04-14 15:18 49.10920 10.01906 27322 ft 439 kts 137°
2026-04-14 15:18 49.08746 10.05197 27667 ft 441 kts 137°
2026-04-14 15:18 49.06559 10.08503 28004 ft 443 kts 136°
2026-04-14 15:18 49.04345 10.11788 28346 ft 445 kts 137°
2026-04-14 15:19 49.02085 10.15027 28665 ft 447 kts 139°
2026-04-14 15:19 48.99796 10.18233 28971 ft 449 kts 139°
2026-04-14 15:19 48.97480 10.21445 29249 ft 451 kts 139°
2026-04-14 15:19 48.95161 10.24663 29551 ft 453 kts 139°
2026-04-14 15:20 48.92840 10.27905 29828 ft 454 kts 139°
2026-04-14 15:20 48.90515 10.31171 30100 ft 456 kts 138°
2026-04-14 15:20 48.88187 10.34454 30357 ft 457 kts 138°
2026-04-14 15:20 48.85858 10.37735 30655 ft 456 kts 139°
2026-04-14 15:21 48.83535 10.41002 30945 ft 456 kts 138°
2026-04-14 15:21 48.81241 10.44335 31231 ft 456 kts 136°
2026-04-14 15:21 48.79023 10.47782 31511 ft 456 kts 135°
2026-04-14 15:21 48.76859 10.51306 31788 ft 457 kts 134°
2026-04-14 15:22 48.74719 10.54859 32086 ft 456 kts 133°
2026-04-14 15:22 48.72581 10.58403 32391 ft 455 kts 133°
2026-04-14 15:22 48.70430 10.61918 32697 ft 455 kts 134°
2026-04-14 15:22 48.68292 10.65356 32989 ft 454 kts 134°
2026-04-14 15:23 48.66084 10.68863 33276 ft 454 kts 134°
2026-04-14 15:23 48.63924 10.72268 33564 ft 454 kts 135°
2026-04-14 15:23 48.61705 10.75756 33855 ft 454 kts 135°
2026-04-14 15:23 48.59552 10.79143 34156 ft 453 kts 135°
2026-04-14 15:24 48.57375 10.82585 34412 ft 453 kts 134°
2026-04-14 15:24 48.55182 10.86086 34654 ft 453 kts 134°
2026-04-14 15:24 48.53025 10.89548 34923 ft 452 kts 134°
2026-04-14 15:24 48.50906 10.92952 35205 ft 451 kts 134°
2026-04-14 15:25 48.48755 10.96399 35439 ft 451 kts 134°
2026-04-14 15:25 48.46596 10.99821 35645 ft 451 kts 135°
2026-04-14 15:25 48.44420 11.03227 35835 ft 452 kts 135°
2026-04-14 15:25 48.42232 11.06625 36032 ft 452 kts 135°
2026-04-14 15:26 48.40031 11.10026 36219 ft 453 kts 135°
2026-04-14 15:26 48.37828 11.13420 36401 ft 453 kts 135°
2026-04-14 15:26 48.35627 11.16813 36577 ft 454 kts 135°
2026-04-14 15:26 48.33425 11.20220 36750 ft 454 kts 135°
2026-04-14 15:27 48.31225 11.23627 36929 ft 455 kts 135°
2026-04-14 15:27 48.29027 11.27035 37115 ft 455 kts 135°
2026-04-14 15:27 48.25100 11.34471 37169 ft 457 kts 120°
2026-04-14 15:28 48.21975 11.42789 37170 ft 458 kts 120°
2026-04-14 15:28 48.18833 11.51085 37169 ft 458 kts 121°
2026-04-14 15:29 48.15672 11.59361 37174 ft 458 kts 121°
2026-04-14 15:29 48.12506 11.67640 37186 ft 458 kts 121°
2026-04-14 15:30 48.09339 11.75917 37180 ft 458 kts 121°
2026-04-14 15:30 48.06165 11.84196 37177 ft 458 kts 121°
2026-04-14 15:31 48.02979 11.92456 37181 ft 459 kts 121°
2026-04-14 15:31 47.99811 12.00647 37172 ft 459 kts 121°
2026-04-14 15:32 47.96596 12.08958 37179 ft 459 kts 121°
2026-04-14 15:32 47.93419 12.17152 37187 ft 460 kts 121°
2026-04-14 15:33 47.90197 12.25388 37189 ft 460 kts 121°
2026-04-14 15:33 47.86950 12.33676 37191 ft 460 kts 121°
2026-04-14 15:34 47.84275 12.40514 37193 ft 460 kts 121°
2026-04-14 15:34 47.81046 12.48739 37186 ft 460 kts 122°
2026-04-14 15:35 47.77799 12.56943 37192 ft 460 kts 122°
2026-04-14 15:35 47.74029 12.66462 37199 ft 460 kts 122°
2026-04-14 15:36 47.71309 12.73318 37197 ft 460 kts 122°
2026-04-14 15:36 47.67852 12.81278 37197 ft 457 kts 131°
2026-04-14 15:37 47.63435 12.88027 37191 ft 456 kts 136°
2026-04-14 15:37 47.58942 12.94651 37191 ft 456 kts 136°
2026-04-14 15:38 47.54445 13.01277 37184 ft 456 kts 136°
2026-04-14 15:38 47.49978 13.07849 37173 ft 456 kts 136°
2026-04-14 15:39 47.45478 13.14441 37163 ft 456 kts 136°
2026-04-14 15:39 47.40978 13.21030 37160 ft 455 kts 136°
2026-04-14 15:40 47.36444 13.27653 37150 ft 456 kts 136°
2026-04-14 15:40 47.32080 13.34422 37149 ft 457 kts 128°
2026-04-14 15:41 47.28382 13.41951 37141 ft 457 kts 127°
2026-04-14 15:41 47.24656 13.49522 37134 ft 457 kts 127°
2026-04-14 15:42 47.20915 13.57091 37129 ft 457 kts 127°
2026-04-14 15:42 47.17168 13.64658 37126 ft 456 kts 127°
2026-04-14 15:43 47.13428 13.72187 37114 ft 456 kts 128°
2026-04-14 15:43 47.09680 13.79698 37115 ft 456 kts 128°
2026-04-14 15:44 47.05929 13.87202 37115 ft 456 kts 128°
2026-04-14 15:44 47.02177 13.94705 37112 ft 456 kts 128°
2026-04-14 15:45 46.98441 14.02136 37111 ft 456 kts 128°
2026-04-14 15:45 46.94676 14.09611 37110 ft 456 kts 128°
2026-04-14 15:46 46.90913 14.17068 37112 ft 455 kts 129°
2026-04-14 15:46 46.87144 14.24494 37122 ft 455 kts 129°
2026-04-14 15:47 46.83378 14.31919 37119 ft 454 kts 129°
2026-04-14 15:47 46.79613 14.39325 37111 ft 454 kts 129°
2026-04-14 15:48 46.75841 14.46716 37115 ft 454 kts 129°
2026-04-14 15:48 46.72061 14.54100 37116 ft 454 kts 129°
2026-04-14 15:49 46.68280 14.61464 37112 ft 454 kts 129°
2026-04-14 15:49 46.64498 14.68820 37112 ft 454 kts 129°
2026-04-14 15:50 46.60714 14.76162 37115 ft 453 kts 129°
2026-04-14 15:50 46.56924 14.83486 37116 ft 453 kts 129°
2026-04-14 15:51 46.53136 14.90797 37131 ft 453 kts 129°
2026-04-14 15:51 46.49363 14.98050 37136 ft 453 kts 129°
2026-04-14 15:52 46.45563 15.05336 37127 ft 453 kts 130°
2026-04-14 15:52 46.41762 15.12614 37131 ft 453 kts 129°
2026-04-14 15:53 46.37951 15.19893 37130 ft 453 kts 130°
2026-04-14 15:53 46.34231 15.27262 37135 ft 454 kts 128°
2026-04-14 15:54 46.28869 15.38575 37133 ft 454 kts 127°
2026-04-14 15:55 46.25265 15.46068 37133 ft 454 kts 128°
2026-04-14 15:55 46.21629 15.53520 37122 ft 454 kts 128°
2026-04-14 15:56 46.17979 15.60966 37118 ft 454 kts 128°
2026-04-14 15:56 46.14389 15.68453 37113 ft 455 kts 126°
2026-04-14 15:57 46.10924 15.76089 37116 ft 455 kts 126°
2026-04-14 15:57 46.07460 15.83726 37113 ft 455 kts 126°
2026-04-14 15:58 46.03963 15.91311 37119 ft 455 kts 126°
2026-04-14 15:58 46.00448 15.98870 37112 ft 454 kts 126°
2026-04-14 15:59 45.96935 16.06413 37097 ft 454 kts 126°
2026-04-14 15:59 45.93404 16.13959 37099 ft 455 kts 126°
2026-04-14 16:00 45.89871 16.21503 37094 ft 455 kts 126°
2026-04-14 16:00 45.86345 16.29034 37095 ft 455 kts 126°
2026-04-14 16:01 45.82814 16.36567 37092 ft 455 kts 126°
2026-04-14 16:01 45.79269 16.44096 37089 ft 456 kts 126°
2026-04-14 16:02 45.75735 16.51576 37087 ft 456 kts 126°
2026-04-14 16:02 45.72150 16.59136 37091 ft 456 kts 127°
2026-04-14 16:03 45.68579 16.66632 37079 ft 456 kts 127°
2026-04-14 16:03 45.65028 16.74091 37078 ft 456 kts 126°
2026-04-14 16:04 45.61453 16.81592 37079 ft 457 kts 127°
2026-04-14 16:04 45.57864 16.89087 37081 ft 457 kts 127°
2026-04-14 16:05 45.54292 16.96582 37081 ft 457 kts 126°
2026-04-14 16:05 45.50861 17.04230 37078 ft 458 kts 124°
2026-04-14 16:06 45.47479 17.11935 37080 ft 458 kts 124°
2026-04-14 16:06 45.44060 17.19609 37081 ft 458 kts 125°
2026-04-14 16:07 45.40612 17.27237 37078 ft 458 kts 125°
2026-04-14 16:07 45.37151 17.34856 37070 ft 459 kts 125°
2026-04-14 16:08 45.33686 17.42488 37072 ft 459 kts 125°
2026-04-14 16:08 45.30239 17.50066 37078 ft 460 kts 125°
2026-04-14 16:09 45.26757 17.57715 37082 ft 461 kts 125°
2026-04-14 16:09 45.23275 17.65336 37067 ft 460 kts 125°
2026-04-14 16:10 45.19777 17.72955 37064 ft 461 kts 125°
2026-04-14 16:10 45.16267 17.80575 37054 ft 462 kts 125°
2026-04-14 16:11 45.12753 17.88198 37070 ft 462 kts 125°
2026-04-14 16:11 45.09238 17.95814 37068 ft 462 kts 125°
2026-04-14 16:12 45.05716 18.03428 37069 ft 463 kts 125°
2026-04-14 16:12 45.02173 18.11031 37063 ft 463 kts 125°
2026-04-14 16:13 44.98627 18.18627 37063 ft 463 kts 125°
2026-04-14 16:13 44.95086 18.26223 37055 ft 463 kts 125°
2026-04-14 16:14 44.91533 18.33813 37053 ft 463 kts 126°
2026-04-14 16:14 44.87973 18.41392 37055 ft 464 kts 126°
2026-04-14 16:15 44.84405 18.48972 37053 ft 464 kts 126°
2026-04-14 16:15 44.80830 18.56542 37060 ft 464 kts 126°
2026-04-14 16:16 44.77270 18.64047 37059 ft 464 kts 125°
2026-04-14 16:16 44.73744 18.71665 37052 ft 464 kts 124°
2026-04-14 16:17 44.70260 18.79311 37055 ft 465 kts 124°
2026-04-14 16:17 44.66756 18.86940 37056 ft 465 kts 125°
2026-04-14 16:18 44.63224 18.94553 37063 ft 465 kts 125°
2026-04-14 16:18 44.59687 19.02147 37069 ft 465 kts 125°
2026-04-14 16:19 44.56145 19.09738 37057 ft 465 kts 125°
2026-04-14 16:19 44.52601 19.17325 37067 ft 465 kts 125°
2026-04-14 16:20 44.49054 19.24909 37066 ft 465 kts 125°
2026-04-14 16:20 44.45505 19.32470 37055 ft 465 kts 125°
2026-04-14 16:21 44.41939 19.40032 37057 ft 465 kts 125°
2026-04-14 16:21 44.38373 19.47580 37045 ft 465 kts 125°
2026-04-14 16:22 44.35406 19.53855 37045 ft 465 kts 125°
2026-04-14 16:22 44.31824 19.61403 37051 ft 466 kts 125°
2026-04-14 16:23 44.27658 19.70164 37052 ft 466 kts 125°
2026-04-14 16:23 44.24650 19.76468 37056 ft 466 kts 125°
2026-04-14 16:24 44.21045 19.83995 37061 ft 466 kts 125°
2026-04-14 16:24 44.17470 19.91466 37070 ft 466 kts 125°
2026-04-14 16:25 44.13872 19.98972 37076 ft 466 kts 126°
2026-04-14 16:25 44.10257 20.06467 37072 ft 466 kts 126°
2026-04-14 16:26 44.06643 20.13947 37080 ft 466 kts 126°
2026-04-14 16:26 44.03017 20.21422 37087 ft 466 kts 126°
2026-04-14 16:27 43.99389 20.28888 37086 ft 466 kts 126°
2026-04-14 16:27 43.95760 20.36348 37083 ft 466 kts 126°
2026-04-14 16:28 43.92122 20.43807 37083 ft 467 kts 126°
2026-04-14 16:28 43.88850 20.51589 37075 ft 468 kts 120°
2026-04-14 16:29 43.85777 20.59556 37079 ft 468 kts 120°
2026-04-14 16:29 43.82694 20.67509 37084 ft 469 kts 120°
2026-04-14 16:30 43.79605 20.75460 37080 ft 469 kts 120°
2026-04-14 16:30 43.76516 20.83414 37081 ft 469 kts 120°
2026-04-14 16:31 43.73418 20.91361 37084 ft 469 kts 121°
2026-04-14 16:31 43.70310 20.99298 37078 ft 470 kts 121°
2026-04-14 16:32 43.67208 21.07192 37088 ft 470 kts 121°
2026-04-14 16:32 43.64078 21.15130 37090 ft 471 kts 121°
2026-04-14 16:33 43.60944 21.23064 37076 ft 471 kts 121°
2026-04-14 16:33 43.57806 21.30993 37075 ft 471 kts 121°
2026-04-14 16:34 43.54655 21.38924 37082 ft 472 kts 121°
2026-04-14 16:34 43.51499 21.46855 37075 ft 472 kts 121°
2026-04-14 16:35 43.48335 21.54792 37074 ft 473 kts 121°
2026-04-14 16:35 43.45162 21.62740 37075 ft 474 kts 121°
2026-04-14 16:36 43.41972 21.70688 37078 ft 474 kts 122°
2026-04-14 16:36 43.38769 21.78624 37081 ft 474 kts 122°
2026-04-14 16:37 43.35567 21.86550 37084 ft 474 kts 122°
2026-04-14 16:37 43.32363 21.94473 37083 ft 474 kts 122°
2026-04-14 16:38 43.29152 22.02389 37079 ft 474 kts 122°
2026-04-14 16:38 43.25938 22.10289 37087 ft 474 kts 122°
2026-04-14 16:39 43.22711 22.18198 37058 ft 475 kts 122°
2026-04-14 16:39 43.19497 22.26057 37077 ft 476 kts 122°
2026-04-14 16:40 43.16243 22.33977 37079 ft 477 kts 122°
2026-04-14 16:40 43.12978 22.41883 37070 ft 477 kts 123°
2026-04-14 16:41 43.09708 22.49810 37084 ft 479 kts 123°
2026-04-14 16:41 43.06427 22.57749 36663 ft 479 kts 123°
2026-04-14 16:41 43.04783 22.61720 35845 ft 480 kts 124°
2026-04-14 16:42 43.03131 22.65700 35005 ft 483 kts 124°
2026-04-14 16:42 43.01465 22.69702 34181 ft 486 kts 125°
2026-04-14 16:42 42.99786 22.73728 33146 ft 490 kts 125°
2026-04-14 16:42 42.98089 22.77789 32126 ft 494 kts 124°
2026-04-14 16:43 42.96372 22.81850 31196 ft 495 kts 126°
2026-04-14 16:43 42.94582 22.85876 30393 ft 494 kts 127°
2026-04-14 16:43 42.92761 22.89809 29674 ft 488 kts 127°
2026-04-14 16:43 42.90971 22.93632 28979 ft 483 kts 124°
2026-04-14 16:44 42.89502 22.97799 28314 ft 482 kts 112°
2026-04-14 16:44 42.88680 23.02160 27653 ft 481 kts 99°
2026-04-14 16:44 42.88411 23.06656 27412 ft 468 kts 95°
2026-04-14 16:45 42.87934 23.15231 27148 ft 439 kts 99°
2026-04-14 16:45 42.87110 23.19124 27028 ft 420 kts 120°
2026-04-14 16:45 42.85438 23.22213 26894 ft 394 kts 145°
2026-04-14 16:45 42.83175 23.23986 26767 ft 362 kts 171°
2026-04-14 16:46 42.80795 23.24230 26633 ft 329 kts 199°
2026-04-14 16:46 42.78830 23.23044 26502 ft 297 kts 227°
2026-04-14 16:46 42.77713 23.20869 26335 ft 274 kts 256°
2026-04-14 16:46 42.77669 23.18350 25990 ft 269 kts 286°
2026-04-14 16:47 42.78614 23.16145 25557 ft 274 kts 303°
2026-04-14 16:47 42.79553 23.13922 25123 ft 269 kts 284°
2026-04-14 16:47 42.79889 23.11425 24683 ft 269 kts 276°
2026-04-14 16:47 42.80059 23.08877 24276 ft 269 kts 274°
2026-04-14 16:48 42.80173 23.06364 23977 ft 266 kts 273°
2026-04-14 16:48 42.80279 23.03839 23558 ft 267 kts 274°
2026-04-14 16:48 42.80390 23.01319 23146 ft 266 kts 274°
2026-04-14 16:48 42.80513 22.98804 22747 ft 266 kts 274°
2026-04-14 16:49 42.80645 22.96303 22369 ft 264 kts 274°
2026-04-14 16:49 42.80781 22.93817 22006 ft 263 kts 274°
2026-04-14 16:49 42.80919 22.91335 21644 ft 262 kts 274°
2026-04-14 16:49 42.81056 22.88867 21304 ft 261 kts 274°
2026-04-14 16:50 42.81192 22.86400 20920 ft 261 kts 274°
2026-04-14 16:50 42.81327 22.83935 20582 ft 260 kts 273°
2026-04-14 16:50 42.81073 22.81532 20255 ft 259 kts 244°
2026-04-14 16:50 42.79884 22.79731 19887 ft 262 kts 210°
2026-04-14 16:51 42.78113 22.79094 19503 ft 269 kts 188°
2026-04-14 16:51 42.76233 22.78913 19153 ft 272 kts 182°
2026-04-14 16:51 42.74424 22.79590 18859 ft 276 kts 147°
2026-04-14 16:51 42.73181 22.81550 18527 ft 279 kts 112°
2026-04-14 16:52 42.72754 22.84119 18145 ft 281 kts 100°
2026-04-14 16:52 42.72110 22.86596 17781 ft 277 kts 126°
2026-04-14 16:52 42.70748 22.88381 17443 ft 271 kts 150°
2026-04-14 16:52 42.69110 22.89631 17116 ft 270 kts 155°
2026-04-14 16:53 42.67437 22.90795 16818 ft 269 kts 156°
2026-04-14 16:53 42.65769 22.91939 16531 ft 268 kts 156°
2026-04-14 16:53 42.64095 22.93082 15909 ft 279 kts 156°
2026-04-14 16:53 42.62201 22.94134 14753 ft 308 kts 171°
2026-04-14 16:54 42.60004 22.94106 13621 ft 328 kts 197°
2026-04-14 16:54 42.57960 22.92658 12423 ft 341 kts 224°
2026-04-14 16:54 42.56599 22.89989 11275 ft 352 kts 250°
2026-04-14 16:54 42.56268 22.86679 10174 ft 363 kts 275°
2026-04-14 16:55 42.57075 22.83410 9021 ft 374 kts 302°
2026-04-14 16:55 42.58876 22.81043 8902 ft 357 kts 324°
2026-04-14 16:55 42.61029 22.79534 9061 ft 333 kts 338°
2026-04-14 16:55 42.63228 22.78908 9118 ft 315 kts 355°
2026-04-14 16:56 42.65325 22.79124 9131 ft 300 kts 11°
2026-04-14 16:56 42.67247 22.80068 9024 ft 289 kts 26°
2026-04-14 16:56 42.68870 22.81591 8892 ft 279 kts 41°
2026-04-14 16:56 42.70159 22.83500 8764 ft 269 kts 49°
2026-04-14 16:57 42.71339 22.85403 8635 ft 258 kts 50°
2026-04-14 16:57 42.72256 22.87429 8484 ft 247 kts 70°
2026-04-14 16:57 42.72614 22.89671 8213 ft 241 kts 91°
2026-04-14 16:57 42.72509 22.91926 7949 ft 237 kts 97°
2026-04-14 16:58 42.72375 22.94152 7646 ft 236 kts 96°
2026-04-14 16:58 42.72251 22.96364 7338 ft 234 kts 97°
2026-04-14 16:58 42.72131 22.98559 7075 ft 231 kts 97°
2026-04-14 16:58 42.72013 23.00728 6982 ft 229 kts 96°
2026-04-14 16:59 42.71895 23.02890 6989 ft 229 kts 96°
2026-04-14 16:59 42.71776 23.05064 6919 ft 234 kts 97°
2026-04-14 16:59 42.71659 23.07303 6504 ft 238 kts 98°
2026-04-14 16:59 42.71523 23.09535 6156 ft 235 kts 97°
2026-04-14 17:00 42.71394 23.11743 5834 ft 233 kts 97°
2026-04-14 17:00 42.71270 23.13921 5531 ft 230 kts 97°
2026-04-14 17:00 42.71147 23.16074 5229 ft 227 kts 98°
2026-04-14 17:00 42.71025 23.18202 4937 ft 225 kts 98°
2026-04-14 17:01 42.70903 23.20299 4629 ft 224 kts 95°
2026-04-14 17:01 42.70783 23.22385 4327 ft 219 kts 95°
2026-04-14 17:01 42.70664 23.24431 4029 ft 216 kts 95°
2026-04-14 17:01 42.70546 23.26448 3725 ft 211 kts 94°
2026-04-14 17:02 42.70431 23.28424 3432 ft 208 kts 95°
2026-04-14 17:02 42.70317 23.30366 3159 ft 204 kts 95°
2026-04-14 17:02 42.70205 23.32271 2916 ft 199 kts 96°
2026-04-14 17:02 42.70098 23.34101 2632 ft 189 kts 96°
2026-04-14 17:03 42.69997 23.35814 2417 ft 172 kts 96°
2026-04-14 17:03 42.69905 23.37368 2172 ft 160 kts 95°
2026-04-14 17:03 42.69820 23.38799 1970 ft 142 kts 95°
2026-04-14 17:03 42.69744 23.40067 1771 ft 127 kts 96°
2026-04-14 17:04 42.69688 23.41006 1745 ft 55 kts 94°
2026-04-14 17:04 42.69659 23.41480 1750 ft 47 kts 95°
2026-04-14 17:04 42.69632 23.41903 1749 ft 43 kts 93°
2026-04-14 17:04 42.69613 23.42303 1749 ft 44 kts 95°
2026-04-14 17:05 42.69527 23.42670 1743 ft 39 kts 124°
2026-04-14 17:05 42.69403 23.42686 1750 ft 15 kts 287°
2026-04-14 17:05 42.69412 23.42527 1745 ft 19 kts 268°
2026-04-14 17:05 42.69422 23.42320 1743 ft 24 kts 274°
2026-04-14 17:06 42.69437 23.42068 1744 ft 30 kts 275°
2026-04-14 17:06 42.69455 23.41760 1749 ft 35 kts 274°
2026-04-14 17:06 42.69478 23.41411 1748 ft 39 kts 275°
2026-04-14 17:06 42.69501 23.41033 1748 ft 42 kts 274°
2026-04-14 17:07 42.69523 23.40623 1739 ft 29 kts 274°
2026-04-14 17:07 42.69487 23.40486 1742 ft 13 kts 200°
2026-04-14 17:07 42.69388 23.40440 1741 ft 17 kts 197°
2026-04-14 17:07 42.69261 23.40391 1747 ft 20 kts 199°
2026-04-14 17:08 42.69162 23.40302 1743 ft 17 kts 266°
2026-04-14 17:08 42.69171 23.40192 1746 ft 8 kts 235°
2026-04-14 17:08 42.69112 23.40159 1746 ft 13 kts 191°
2026-04-14 17:08 42.69089 23.40075 1745 ft 5 kts
2026-04-14 17:09 42.69128 23.40090 1746 ft 8 kts 14°
2026-04-14 17:09 42.69148 23.40097 1745 ft 0 kts 15°